TIROS N [P] 1 11060U 78096A 08132.90560400 -.00000024 00000-0 10365-4 0 8924 2 11060 98.8763 96.7007 0011579 79.5935 280.6544 14.17451065742108 NOAA 1 [-] 1 04793U 70106A 08133.57711226 -.00000030 00000-0 10000-3 0 161 2 04793 102.0315 111.9316 0032229 119.7338 240.6946 12.53918630712705 NOAA 2 [-] 1 06235U 72082A 08132.54499994 -.00000027 00000-0 10000-3 0 1145 2 06235 101.4349 159.9632 0003876 354.6266 5.4764 12.52998286627161 NOAA 3 [-] 1 06920U 73086A 08132.56943646 -.00000030 00000-0 10000-3 0 9952 2 06920 101.7604 162.8998 0006146 204.8626 155.2142 12.40289159562482 NOAA 4 [-] 1 07529U 74089A 08133.53424099 -.00000027 00000-0 10000-3 0 199 2 07529 101.4802 166.2309 0009251 19.9370 340.2064 12.53061836531861 NOAA 5 [-] 1 09057U 76077A 08132.54611443 -.00000031 00000-0 10000-3 0 8819 2 09057 101.9713 177.9908 0009702 14.8636 345.2710 12.37876493436782 NOAA 6 [P] 1 11416U 79057A 08133.50898107 .00000039 00000-0 30541-4 0 5506 2 11416 98.4282 154.2288 0010925 14.5741 345.5767 14.31863552504371 NOAA 7 [-] 1 12553U 81059A 08132.86565719 -.00000028 00000-0 72075-5 0 6770 2 12553 98.5983 92.7163 0012412 32.4496 327.7446 14.16745118388703 NOAA 8 [-] 1 13923U 83022A 08133.12601360 -.00000013 00000-0 12539-4 0 5633 2 13923 98.5999 164.0534 0015067 200.6894 159.3679 14.27670781307621 NOAA 9 [P] 1 15427U 84123A 08133.08846795 .00000191 00000-0 11869-3 0 1754 2 15427 98.4348 146.2058 0015553 131.8382 228.4148 14.15289759208222 NOAA 10 [-] 1 16969U 86073A 08133.26383736 -.00000132 00000-0 -35540-4 0 1146 2 16969 98.7231 155.3035 0011377 287.5477 72.4474 14.27358221126310 NOAA 11 [-] 1 19531U 88089A 08133.31394082 -.00000024 00000-0 10223-4 0 1583 2 19531 98.7954 223.1382 0011556 166.7117 193.4394 14.14870368 12830 NOAA 12 [B] 1 21263U 91032A 08133.40558130 .00000100 00000-0 60999-4 0 6669 2 21263 98.7655 135.3619 0011667 226.3559 133.6690 14.25531344883297 NOAA 13 [-] 1 22739U 93050A 08132.83077456 -.00000028 00000-0 89473-5 0 4288 2 22739 98.9004 210.4225 0008803 256.4505 103.5686 14.12198185760313 NOAA 14 [-] 1 23455U 94089A 08133.45334215 .00000183 00000-0 12072-3 0 1383 2 23455 98.9468 205.6729 0008659 242.4208 117.6079 14.13742114689301 NOAA 15 [+] 1 25338U 98030A 08133.39975691 -.00000065 00000-0 -94114-5 0 4616 2 25338 98.5531 126.1711 0011280 141.6563 218.5428 14.24699403519705 NOAA 16 [+] 1 26536U 00055A 08133.36393946 .00000167 00000-0 11574-3 0 9287 2 26536 99.1554 121.7586 0010017 331.1843 28.8776 14.12480894393711 NOAA 17 [+] 1 27453U 02032A 08133.42759255 .00000220 00000-0 11437-3 0 9210 2 27453 98.5356 199.0858 0011334 207.5387 152.5200 14.23973011305715 NOAA 18 [+] 1 28654U 05018A 08133.45964774 .00000430 00000-0 26258-3 0 4235 2 28654 98.8669 74.8325 0015232 56.7457 303.5153 14.11163341153430